Time,TemperatureF,DewpointF,PressureIn,WindDirection,WindDirectionDegrees,WindSpeedMPH,WindSpeedGustMPH,Humidity,HourlyPrecipIn,Conditions,Clouds,dailyrainin,SoftwareType,DateUTC
2013-08-27 00:02:00,80.2,70.9,-100.00,SSW,210,0.0,6.0,73,0.00,,,0.00,meteohub,2013-08-27 05:02:00,
2013-08-27 00:07:00,80.1,70.7,-100.00,SSW,209,7.0,7.0,73,0.00,,,0.00,meteohub,2013-08-27 05:07:00,
2013-08-27 00:12:00,79.9,70.5,-100.00,SSW,210,0.0,7.0,73,0.00,,,0.00,meteohub,2013-08-27 05:12:00,
2013-08-27 00:17:00,79.9,70.9,-100.00,SSW,211,1.0,7.0,74,0.00,,,0.00,meteohub,2013-08-27 05:17:00,
2013-08-27 00:22:00,79.7,70.7,-100.00,SSW,211,0.0,7.0,74,0.00,,,0.00,meteohub,2013-08-27 05:22:00,
2013-08-27 00:27:00,79.7,70.7,-100.00,SSW,211,0.0,3.0,74,0.00,,,0.00,meteohub,2013-08-27 05:27:00,
2013-08-27 00:32:00,79.5,70.5,-100.00,SW,219,5.0,5.0,74,0.00,,,0.00,meteohub,2013-08-27 05:32:00,
2013-08-27 00:37:00,79.5,70.9,-100.00,SSW,207,0.0,6.0,75,0.00,,,0.00,meteohub,2013-08-27 05:37:00,
2013-08-27 00:42:00,79.5,70.9,-100.00,SSW,209,0.0,7.0,75,0.00,,,0.00,meteohub,2013-08-27 05:42:00,
2013-08-27 00:47:00,79.5,70.9,-100.00,SW,222,0.0,12.0,75,0.00,,,0.00,meteohub,2013-08-27 05:47:00,
2013-08-27 00:52:00,79.5,70.9,-100.00,SW,219,0.0,12.0,75,0.00,,,0.00,meteohub,2013-08-27 05:52:00,
2013-08-27 00:57:00,79.3,70.7,-100.00,SW,217,0.0,12.0,75,0.00,,,0.00,meteohub,2013-08-27 05:57:00,
2013-08-27 01:02:00,79.3,71.1,-100.00,SW,232,0.0,6.0,76,0.00,,,0.00,meteohub,2013-08-27 06:02:00,
2013-08-27 01:07:00,79.2,70.9,-100.00,SW,217,0.0,4.0,76,0.00,,,0.00,meteohub,2013-08-27 06:07:00,
2013-08-27 01:12:00,79.0,70.7,-100.00,SW,215,0.0,5.0,76,0.00,,,0.00,meteohub,2013-08-27 06:12:00,
2013-08-27 01:17:00,78.8,70.5,-100.00,SW,214,0.0,5.0,76,0.00,,,0.00,meteohub,2013-08-27 06:17:00,
2013-08-27 01:22:00,78.6,70.9,-100.00,SSW,207,0.0,5.0,77,0.00,,,0.00,meteohub,2013-08-27 06:22:00,
2013-08-27 01:27:00,78.4,70.7,-100.00,SSW,207,0.0,5.0,77,0.00,,,0.00,meteohub,2013-08-27 06:27:00,
2013-08-27 01:32:00,78.3,70.9,-100.00,SSW,207,0.0,5.0,78,0.00,,,0.00,meteohub,2013-08-27 06:32:00,
2013-08-27 01:38:00,78.1,70.7,-100.00,SSW,207,0.0,5.0,78,0.00,,,0.00,meteohub,2013-08-27 06:38:00,
2013-08-27 01:43:00,77.7,70.7,-100.00,SSW,206,0.0,1.0,79,0.00,,,0.00,meteohub,2013-08-27 06:43:00,
2013-08-27 01:48:00,77.5,70.5,-100.00,SSW,206,0.0,1.0,79,0.00,,,0.00,meteohub,2013-08-27 06:48:00,
2013-08-27 01:53:00,77.4,70.7,-100.00,SSW,207,0.0,1.0,80,0.00,,,0.00,meteohub,2013-08-27 06:53:00,
2013-08-27 01:58:00,77.4,70.7,-100.00,SSW,207,0.0,1.0,80,0.00,,,0.00,meteohub,2013-08-27 06:58:00,
2013-08-27 02:03:00,77.2,70.5,-100.00,SSW,207,0.0,1.0,80,0.00,,,0.00,meteohub,2013-08-27 07:03:00,
2013-08-27 02:08:00,77.2,70.5,-100.00,SSW,206,0.0,1.0,80,0.00,,,0.00,meteohub,2013-08-27 07:08:00,
2013-08-27 02:13:00,77.2,70.5,-100.00,SSW,206,0.0,1.0,80,0.00,,,0.00,meteohub,2013-08-27 07:13:00,
2013-08-27 02:18:00,77.0,70.7,-100.00,SSW,206,0.0,1.0,81,0.00,,,0.00,meteohub,2013-08-27 07:18:00,
2013-08-27 02:23:00,76.8,70.5,-100.00,SSW,206,0.0,1.0,81,0.00,,,0.00,meteohub,2013-08-27 07:23:00,
2013-08-27 02:28:00,76.6,70.3,-100.00,SSW,206,0.0,1.0,81,0.00,,,0.00,meteohub,2013-08-27 07:28:00,
2013-08-27 02:33:00,76.5,70.5,-100.00,SSW,206,0.0,1.0,82,0.00,,,0.00,meteohub,2013-08-27 07:33:00,
2013-08-27 02:38:00,76.5,70.5,-100.00,SSW,206,0.0,1.0,82,0.00,,,0.00,meteohub,2013-08-27 07:38:00,
2013-08-27 02:43:00,76.3,70.3,-100.00,SSW,206,0.0,1.0,82,0.00,,,0.00,meteohub,2013-08-27 07:43:00,
2013-08-27 02:48:00,76.3,70.7,-100.00,SSW,206,0.0,0.0,83,0.00,,,0.00,meteohub,2013-08-27 07:48:00,
2013-08-27 02:53:00,76.3,70.7,-100.00,SSW,206,0.0,1.0,83,0.00,,,0.00,meteohub,2013-08-27 07:53:00,
2013-08-27 02:58:00,76.1,70.5,-100.00,SSW,206,0.0,1.0,83,0.00,,,0.00,meteohub,2013-08-27 07:58:00,
2013-08-27 03:03:00,75.9,70.3,-100.00,SSW,206,0.0,1.0,83,0.00,,,0.00,meteohub,2013-08-27 08:03:00,
2013-08-27 03:08:00,75.7,70.2,-100.00,SSW,206,0.0,1.0,83,0.00,,,0.00,meteohub,2013-08-27 08:08:00,
2013-08-27 03:13:00,75.7,70.5,-100.00,SSW,206,0.0,1.0,84,0.00,,,0.00,meteohub,2013-08-27 08:13:00,
2013-08-27 03:18:00,75.7,70.5,-100.00,SSW,206,0.0,1.0,84,0.00,,,0.00,meteohub,2013-08-27 08:18:00,
2013-08-27 03:23:00,75.6,70.3,-100.00,SSW,206,0.0,1.0,84,0.00,,,0.00,meteohub,2013-08-27 08:23:00,
2013-08-27 03:28:00,75.6,70.3,-100.00,SSW,206,0.0,1.0,84,0.00,,,0.00,meteohub,2013-08-27 08:28:00,
2013-08-27 03:33:00,75.6,70.3,-100.00,SSW,206,0.0,2.0,84,0.00,,,0.00,meteohub,2013-08-27 08:33:00,
2013-08-27 03:38:00,75.6,70.3,-100.00,SSW,206,0.0,2.0,84,0.00,,,0.00,meteohub,2013-08-27 08:38:00,
2013-08-27 03:43:00,75.6,70.3,-100.00,SSW,206,0.0,2.0,84,0.00,,,0.00,meteohub,2013-08-27 08:43:00,
2013-08-27 03:48:00,75.4,70.5,-100.00,SSW,206,0.0,1.0,85,0.00,,,0.00,meteohub,2013-08-27 08:48:00,
2013-08-27 03:53:00,75.4,70.2,-100.00,SSW,207,0.0,1.0,84,0.00,,,0.00,meteohub,2013-08-27 08:53:00,
2013-08-27 03:58:00,75.4,70.5,-100.00,SSW,207,0.0,1.0,85,0.00,,,0.00,meteohub,2013-08-27 08:58:00,
2013-08-27 04:03:00,75.4,70.5,-100.00,SSW,206,0.0,1.0,85,0.00,,,0.00,meteohub,2013-08-27 09:03:00,
2013-08-27 04:08:00,75.4,70.5,-100.00,SSW,206,0.0,1.0,85,0.00,,,0.00,meteohub,2013-08-27 09:08:00,
2013-08-27 04:13:00,75.2,70.3,-100.00,SSW,207,0.0,1.0,85,0.00,,,0.00,meteohub,2013-08-27 09:13:00,
2013-08-27 04:18:00,75.2,70.3,-100.00,SSW,207,0.0,1.0,85,0.00,,,0.00,meteohub,2013-08-27 09:18:00,
2013-08-27 04:23:00,75.2,70.3,-100.00,SSW,206,0.0,1.0,85,0.00,,,0.00,meteohub,2013-08-27 09:23:00,
2013-08-27 04:28:00,75.2,70.3,-100.00,SSW,205,0.0,3.0,85,0.00,,,0.00,meteohub,2013-08-27 09:28:00,
2013-08-27 04:33:00,74.8,70.0,-100.00,SSW,205,0.0,3.0,85,0.00,,,0.00,meteohub,2013-08-27 09:33:00,
2013-08-27 04:38:00,74.7,70.2,-100.00,SSW,205,0.0,3.0,86,0.00,,,0.00,meteohub,2013-08-27 09:38:00,
2013-08-27 04:43:00,74.7,70.2,-100.00,SSW,205,0.0,2.0,86,0.00,,,0.00,meteohub,2013-08-27 09:43:00,
2013-08-27 04:48:00,74.5,70.0,-100.00,SSW,205,0.0,1.0,86,0.00,,,0.00,meteohub,2013-08-27 09:48:00,
2013-08-27 04:53:00,74.5,70.0,-100.00,SSW,204,0.0,1.0,86,0.00,,,0.00,meteohub,2013-08-27 09:53:00,
2013-08-27 04:58:00,74.5,70.0,-100.00,SSW,202,0.0,3.0,86,0.00,,,0.00,meteohub,2013-08-27 09:58:00,
2013-08-27 05:03:00,74.3,70.2,-100.00,SSW,202,0.0,5.0,87,0.00,,,0.00,meteohub,2013-08-27 10:03:00,
2013-08-27 05:08:00,74.3,70.2,-100.00,SSW,202,0.0,5.0,87,0.00,,,0.00,meteohub,2013-08-27 10:08:00,
2013-08-27 05:13:00,74.3,70.2,-100.00,SSW,202,0.0,4.0,87,0.00,,,0.00,meteohub,2013-08-27 10:13:00,
2013-08-27 05:18:00,74.3,70.2,-100.00,SSW,205,2.0,4.0,87,0.00,,,0.00,meteohub,2013-08-27 10:18:00,
2013-08-27 05:23:00,74.3,70.2,-100.00,SSW,204,0.0,4.0,87,0.00,,,0.00,meteohub,2013-08-27 10:23:00,
2013-08-27 05:28:00,74.3,70.2,-100.00,SSW,204,0.0,6.0,87,0.00,,,0.00,meteohub,2013-08-27 10:28:00,
2013-08-27 05:33:00,74.3,70.2,-100.00,SSW,196,0.0,6.0,87,0.00,,,0.00,meteohub,2013-08-27 10:33:00,
2013-08-27 05:38:00,74.3,70.2,-100.00,SSW,204,1.0,5.0,87,0.00,,,0.00,meteohub,2013-08-27 10:38:00,
2013-08-27 05:43:00,74.3,70.2,-100.00,South,180,0.0,6.0,87,0.00,,,0.00,meteohub,2013-08-27 10:43:00,
2013-08-27 05:48:00,74.3,70.2,-100.00,SSW,194,0.0,7.0,87,0.00,,,0.00,meteohub,2013-08-27 10:48:00,
2013-08-27 05:53:00,74.3,70.2,-100.00,SSW,196,0.0,7.0,87,0.00,,,0.00,meteohub,2013-08-27 10:53:00,
2013-08-27 05:58:00,74.1,70.0,-100.00,South,190,3.0,7.0,87,0.00,,,0.00,meteohub,2013-08-27 10:58:00,
2013-08-27 06:03:00,74.3,70.2,-100.00,SW,218,1.0,6.0,87,0.00,,,0.00,meteohub,2013-08-27 11:03:00,
2013-08-27 06:08:00,74.3,70.2,-100.00,SSW,211,5.0,7.0,87,0.00,,,0.00,meteohub,2013-08-27 11:08:00,
2013-08-27 06:13:00,74.1,70.0,-100.00,SSW,207,3.0,7.0,87,0.00,,,0.00,meteohub,2013-08-27 11:13:00,
2013-08-27 06:18:00,74.1,70.0,-100.00,SSW,206,3.0,6.0,87,0.00,,,0.00,meteohub,2013-08-27 11:18:00,
2013-08-27 06:23:00,74.1,70.0,-100.00,SSW,198,3.0,6.0,87,0.00,,,0.00,meteohub,2013-08-27 11:23:00,
2013-08-27 06:28:00,74.1,70.0,-100.00,SSW,199,3.0,6.0,87,0.00,,,0.00,meteohub,2013-08-27 11:28:00,
2013-08-27 06:33:00,74.1,70.0,-100.00,SSW,192,0.0,6.0,87,0.00,,,0.00,meteohub,2013-08-27 11:33:00,
2013-08-27 06:38:00,74.1,70.0,-100.00,SSW,192,0.0,6.0,87,0.00,,,0.00,meteohub,2013-08-27 11:38:00,
2013-08-27 06:43:00,73.9,69.8,-100.00,SSW,192,0.0,5.0,87,0.00,,,0.00,meteohub,2013-08-27 11:43:00,
2013-08-27 06:48:00,73.8,69.6,-100.00,SSW,192,0.0,5.0,87,0.00,,,0.00,meteohub,2013-08-27 11:48:00,
2013-08-27 06:53:00,73.6,69.8,-100.00,SSW,192,0.0,0.0,88,0.00,,,0.00,meteohub,2013-08-27 11:53:00,
2013-08-27 06:58:00,73.2,69.4,-100.00,SSW,192,0.0,1.0,88,0.00,,,0.00,meteohub,2013-08-27 11:58:00,
2013-08-27 07:03:00,73.2,69.4,-100.00,SSW,192,0.0,1.0,88,0.00,,,0.00,meteohub,2013-08-27 12:03:00,
2013-08-27 07:08:00,73.6,69.8,-100.00,SSW,192,0.0,1.0,88,0.00,,,0.00,meteohub,2013-08-27 12:08:00,
2013-08-27 07:13:00,73.8,70.0,-100.00,SSW,192,0.0,2.0,88,0.00,,,0.00,meteohub,2013-08-27 12:13:00,
2013-08-27 07:18:00,74.1,70.3,-100.00,SSW,192,0.0,2.0,88,0.00,,,0.00,meteohub,2013-08-27 12:18:00,
2013-08-27 07:23:00,74.7,70.5,-100.00,SSW,192,0.0,2.0,87,0.00,,,0.00,meteohub,2013-08-27 12:23:00,
2013-08-27 07:28:00,75.0,70.9,-100.00,South,191,0.0,2.0,87,0.00,,,0.00,meteohub,2013-08-27 12:28:00,
2013-08-27 07:33:00,75.6,71.1,-100.00,SSW,192,0.0,2.0,86,0.00,,,0.00,meteohub,2013-08-27 12:33:00,
2013-08-27 07:38:00,75.7,71.2,-100.00,South,191,0.0,3.0,86,0.00,,,0.00,meteohub,2013-08-27 12:38:00,
2013-08-27 07:43:00,76.5,71.6,-100.00,SSW,192,0.0,3.0,85,0.00,,,0.00,meteohub,2013-08-27 12:43:00,
2013-08-27 07:48:00,76.8,71.6,-100.00,SSW,202,0.0,7.0,84,0.00,,,0.00,meteohub,2013-08-27 12:48:00,
2013-08-27 07:53:00,77.4,71.8,-100.00,SSW,202,0.0,7.0,83,0.00,,,0.00,meteohub,2013-08-27 12:53:00,
2013-08-27 07:58:00,77.9,71.6,-100.00,SSW,209,4.0,7.0,81,0.00,,,0.00,meteohub,2013-08-27 12:58:00,
2013-08-27 08:03:00,78.4,71.8,-100.00,SSW,202,0.0,6.0,80,0.00,,,0.00,meteohub,2013-08-27 13:03:00,
2013-08-27 08:08:00,78.8,71.8,-100.00,SSW,212,0.0,11.0,79,0.00,,,0.00,meteohub,2013-08-27 13:08:00,
2013-08-27 08:13:00,79.3,72.0,-100.00,WSW,237,2.0,11.0,78,0.00,,,0.00,meteohub,2013-08-27 13:13:00,
2013-08-27 08:18:00,80.2,72.0,-100.00,SW,234,6.0,10.0,76,0.00,,,0.00,meteohub,2013-08-27 13:18:00,
2013-08-27 08:23:00,80.8,72.1,-100.00,SW,235,0.0,11.0,75,0.00,,,0.00,meteohub,2013-08-27 13:23:00,
2013-08-27 08:28:00,81.0,72.3,-100.00,SSW,203,7.0,11.0,75,0.00,,,0.00,meteohub,2013-08-27 13:28:00,
2013-08-27 08:33:00,81.1,72.1,-100.00,SSW,210,6.0,11.0,74,0.00,,,0.00,meteohub,2013-08-27 13:33:00,
2013-08-27 08:38:00,81.7,72.5,-100.00,WSW,246,10.0,11.0,74,0.00,,,0.00,meteohub,2013-08-27 13:38:00,
2013-08-27 08:43:00,82.0,72.1,-100.00,SW,225,10.0,13.0,72,0.00,,,0.00,meteohub,2013-08-27 13:43:00,
2013-08-27 08:48:00,82.4,72.5,-100.00,SW,236,9.0,13.0,72,0.00,,,0.00,meteohub,2013-08-27 13:48:00,
2013-08-27 08:53:00,83.1,72.7,-100.00,SW,223,3.0,12.0,71,0.00,,,0.00,meteohub,2013-08-27 13:53:00,
2013-08-27 08:58:00,83.7,72.9,-100.00,SW,223,6.0,12.0,70,0.00,,,0.00,meteohub,2013-08-27 13:58:00,
2013-08-27 09:03:00,83.1,72.0,-100.00,WSW,252,6.0,12.0,69,0.00,,,0.00,meteohub,2013-08-27 14:03:00,
2013-08-27 09:08:00,83.1,72.3,-100.00,SW,236,9.0,12.0,70,0.00,,,0.00,meteohub,2013-08-27 14:08:00,
2013-08-27 09:13:00,84.2,72.5,-100.00,SW,221,6.0,14.0,68,0.00,,,0.00,meteohub,2013-08-27 14:13:00,
2013-08-27 09:18:00,84.7,72.1,-100.00,WSW,257,4.0,14.0,66,0.00,,,0.00,meteohub,2013-08-27 14:18:00,
2013-08-27 09:23:00,85.3,72.7,-100.00,SW,214,1.0,16.0,66,0.00,,,0.00,meteohub,2013-08-27 14:23:00,
2013-08-27 09:28:00,85.8,72.7,-100.00,SSW,207,1.0,16.0,65,0.00,,,0.00,meteohub,2013-08-27 14:28:00,
2013-08-27 09:33:00,85.8,72.1,-100.00,SW,230,4.0,16.0,64,0.00,,,0.00,meteohub,2013-08-27 14:33:00,
2013-08-27 09:38:00,86.5,72.0,-100.00,SW,221,12.0,16.0,62,0.00,,,0.00,meteohub,2013-08-27 14:38:00,
2013-08-27 09:43:00,85.8,71.8,-100.00,SW,228,3.0,16.0,63,0.00,,,0.00,meteohub,2013-08-27 14:43:00,
2013-08-27 09:48:00,86.4,72.3,-100.00,WSW,241,6.0,16.0,63,0.00,,,0.00,meteohub,2013-08-27 14:48:00,
2013-08-27 09:53:00,86.7,71.6,-100.00,West,259,4.0,14.0,61,0.00,,,0.00,meteohub,2013-08-27 14:53:00,
2013-08-27 09:58:00,87.3,71.6,-100.00,SW,221,3.0,14.0,60,0.00,,,0.00,meteohub,2013-08-27 14:58:00,
2013-08-27 10:03:00,87.4,71.8,-100.00,WSW,244,5.0,14.0,60,0.00,,,0.00,meteohub,2013-08-27 15:03:00,
2013-08-27 10:08:00,88.2,71.6,-100.00,WSW,237,0.0,16.0,58,0.00,,,0.00,meteohub,2013-08-27 15:08:00,
2013-08-27 10:13:00,88.3,71.6,-100.00,SW,230,7.0,16.0,58,0.00,,,0.00,meteohub,2013-08-27 15:13:00,
2013-08-27 10:18:00,88.9,71.6,-100.00,WSW,240,9.0,17.0,57,0.00,,,0.00,meteohub,2013-08-27 15:18:00,
2013-08-27 10:23:00,89.4,71.6,-100.00,SW,229,2.0,17.0,56,0.00,,,0.00,meteohub,2013-08-27 15:23:00,
2013-08-27 10:28:00,90.1,72.3,-100.00,SW,232,2.0,14.0,56,0.00,,,0.00,meteohub,2013-08-27 15:28:00,
2013-08-27 10:33:00,91.2,72.3,-100.00,SW,229,2.0,11.0,54,0.00,,,0.00,meteohub,2013-08-27 15:33:00,
2013-08-27 10:38:00,91.9,72.3,-100.00,WSW,258,2.0,11.0,53,0.00,,,0.00,meteohub,2013-08-27 15:38:00,
2013-08-27 10:43:00,92.1,71.4,-100.00,WSW,258,6.0,15.0,51,0.00,,,0.00,meteohub,2013-08-27 15:43:00,
2013-08-27 10:48:00,91.8,71.6,-100.00,SW,234,4.0,15.0,52,0.00,,,0.00,meteohub,2013-08-27 15:48:00,
2013-08-27 10:53:00,91.6,71.4,-100.00,West,268,5.0,15.0,52,0.00,,,0.00,meteohub,2013-08-27 15:53:00,
2013-08-27 10:58:00,91.8,72.1,-100.00,West,269,7.0,15.0,53,0.00,,,0.00,meteohub,2013-08-27 15:58:00,
2013-08-27 11:03:00,92.8,72.0,-100.00,West,278,11.0,14.0,51,0.00,,,0.00,meteohub,2013-08-27 16:03:00,
2013-08-27 11:08:00,93.2,71.8,-100.00,WSW,240,12.0,14.0,50,0.00,,,0.00,meteohub,2013-08-27 16:08:00,
2013-08-27 11:14:00,92.5,72.3,-100.00,SW,233,4.0,15.0,52,0.00,,,0.00,meteohub,2013-08-27 16:14:00,
2013-08-27 11:19:00,93.2,72.3,-100.00,West,259,4.0,19.0,51,0.00,,,0.00,meteohub,2013-08-27 16:19:00,
2013-08-27 11:24:00,93.9,71.8,-100.00,West,280,1.0,19.0,49,0.00,,,0.00,meteohub,2013-08-27 16:24:00,
2013-08-27 11:29:00,94.5,72.3,-100.00,SW,231,4.0,14.0,49,0.00,,,0.00,meteohub,2013-08-27 16:29:00,
2013-08-27 11:34:00,93.7,71.6,-100.00,SSW,206,3.0,13.0,49,0.00,,,0.00,meteohub,2013-08-27 16:34:00,
2013-08-27 11:39:00,93.0,71.6,-100.00,WSW,256,4.0,15.0,50,0.00,,,0.00,meteohub,2013-08-27 16:39:00,
2013-08-27 11:44:00,93.4,71.4,-100.00,SSW,206,3.0,15.0,49,0.00,,,0.00,meteohub,2013-08-27 16:44:00,
2013-08-27 11:49:00,92.8,70.9,-100.00,WSW,250,6.0,15.0,49,0.00,,,0.00,meteohub,2013-08-27 16:49:00,
2013-08-27 11:54:00,93.4,70.7,-100.00,SW,219,5.0,17.0,48,0.00,,,0.00,meteohub,2013-08-27 16:54:00,
2013-08-27 11:59:00,93.7,71.1,-100.00,WSW,237,6.0,19.0,48,0.00,,,0.00,meteohub,2013-08-27 16:59:00,
2013-08-27 12:04:00,94.1,70.7,-100.00,WNW,294,11.0,19.0,47,0.00,,,0.00,meteohub,2013-08-27 17:04:00,
2013-08-27 12:09:00,94.3,70.9,-100.00,SW,227,7.0,19.0,47,0.00,,,0.00,meteohub,2013-08-27 17:09:00,
2013-08-27 12:14:00,94.8,72.1,-100.00,SW,236,2.0,17.0,48,0.00,,,0.00,meteohub,2013-08-27 17:14:00,
2013-08-27 12:19:00,95.2,71.1,-100.00,WNW,284,5.0,17.0,46,0.00,,,0.00,meteohub,2013-08-27 17:19:00,
2013-08-27 12:24:00,95.9,71.8,-100.00,WSW,244,11.0,15.0,46,0.00,,,0.00,meteohub,2013-08-27 17:24:00,
2013-08-27 12:29:00,95.0,70.9,-100.00,WNW,287,0.0,14.0,46,0.00,,,0.00,meteohub,2013-08-27 17:29:00,
2013-08-27 12:34:00,95.9,71.8,-100.00,WSW,238,9.0,14.0,46,0.00,,,0.00,meteohub,2013-08-27 17:34:00,
2013-08-27 12:39:00,95.7,70.3,-100.00,SW,217,1.0,14.0,44,0.00,,,0.00,meteohub,2013-08-27 17:39:00,
2013-08-27 12:44:00,95.2,69.1,-100.00,WSW,252,0.0,13.0,43,0.00,,,0.00,meteohub,2013-08-27 17:44:00,
2013-08-27 12:49:00,95.5,70.2,-100.00,SW,223,1.0,17.0,44,0.00,,,0.00,meteohub,2013-08-27 17:49:00,
2013-08-27 12:54:00,96.3,70.9,-100.00,SW,225,2.0,17.0,44,0.00,,,0.00,meteohub,2013-08-27 17:54:00,
2013-08-27 12:59:00,95.7,68.9,-100.00,SW,234,1.0,17.0,42,0.00,,,0.00,meteohub,2013-08-27 17:59:00,
2013-08-27 13:04:00,95.5,69.4,-100.00,SW,230,4.0,18.0,43,0.00,,,0.00,meteohub,2013-08-27 18:04:00,
2013-08-27 13:09:00,95.7,68.9,-100.00,West,259,3.0,18.0,42,0.00,,,0.00,meteohub,2013-08-27 18:09:00,
2013-08-27 13:14:00,96.4,68.9,-100.00,SW,234,2.0,18.0,41,0.00,,,0.00,meteohub,2013-08-27 18:14:00,
2013-08-27 13:19:00,96.6,69.1,-100.00,WSW,255,6.0,18.0,41,0.00,,,0.00,meteohub,2013-08-27 18:19:00,
2013-08-27 13:24:00,96.6,68.4,-100.00,SW,229,2.0,12.0,40,0.00,,,0.00,meteohub,2013-08-27 18:24:00,
2013-08-27 13:29:00,96.4,68.9,-100.00,SSW,203,2.0,19.0,41,0.00,,,0.00,meteohub,2013-08-27 18:29:00,
2013-08-27 13:34:00,96.3,68.0,-100.00,SW,232,9.0,19.0,40,0.00,,,0.00,meteohub,2013-08-27 18:34:00,
2013-08-27 13:39:00,96.3,67.3,-100.00,West,270,11.0,22.0,39,0.00,,,0.00,meteohub,2013-08-27 18:39:00,
2013-08-27 13:44:00,96.8,67.8,-100.00,SW,225,15.0,22.0,39,0.00,,,0.00,meteohub,2013-08-27 18:44:00,
2013-08-27 13:49:00,97.0,70.2,-100.00,SW,236,3.0,22.0,42,0.00,,,0.00,meteohub,2013-08-27 18:49:00,
2013-08-27 13:54:00,96.8,68.5,-100.00,WNW,294,0.0,21.0,40,0.00,,,0.00,meteohub,2013-08-27 18:54:00,
2013-08-27 13:59:00,97.3,68.2,-100.00,WSW,252,0.0,21.0,39,0.00,,,0.00,meteohub,2013-08-27 18:59:00,
2013-08-27 14:04:00,97.7,70.0,-100.00,SW,234,5.0,19.0,41,0.00,,,0.00,meteohub,2013-08-27 19:04:00,
2013-08-27 14:09:00,96.3,68.7,-100.00,SSW,207,4.0,19.0,41,0.00,,,0.00,meteohub,2013-08-27 19:09:00,
2013-08-27 14:14:00,95.7,68.9,-100.00,SSW,209,0.0,18.0,42,0.00,,,0.00,meteohub,2013-08-27 19:14:00,
2013-08-27 14:19:00,96.1,68.5,-100.00,WSW,240,11.0,16.0,41,0.00,,,0.00,meteohub,2013-08-27 19:19:00,
2013-08-27 14:24:00,96.1,68.5,-100.00,SSW,207,3.0,17.0,41,0.00,,,0.00,meteohub,2013-08-27 19:24:00,
2013-08-27 14:29:00,96.4,68.9,-100.00,SW,230,2.0,17.0,41,0.00,,,0.00,meteohub,2013-08-27 19:29:00,
2013-08-27 14:34:00,96.8,68.5,-100.00,SSW,207,3.0,17.0,40,0.00,,,0.00,meteohub,2013-08-27 19:34:00,
2013-08-27 14:39:00,97.0,69.4,-100.00,SW,233,8.0,15.0,41,0.00,,,0.00,meteohub,2013-08-27 19:39:00,
2013-08-27 14:44:00,96.4,68.9,-100.00,WSW,240,10.0,15.0,41,0.00,,,0.00,meteohub,2013-08-27 19:44:00,
2013-08-27 14:49:00,96.1,67.8,-100.00,SSW,197,9.0,15.0,40,0.00,,,0.00,meteohub,2013-08-27 19:49:00,
2013-08-27 14:54:00,96.3,68.7,-100.00,SW,225,5.0,19.0,41,0.00,,,0.00,meteohub,2013-08-27 19:54:00,
2013-08-27 14:59:00,96.4,68.9,-100.00,SW,228,4.0,19.0,41,0.00,,,0.00,meteohub,2013-08-27 19:59:00,
2013-08-27 15:04:00,96.3,68.7,-100.00,SSW,205,4.0,18.0,41,0.00,,,0.00,meteohub,2013-08-27 20:04:00,
2013-08-27 15:09:00,95.9,68.4,-100.00,SSW,200,4.0,23.0,41,0.00,,,0.00,meteohub,2013-08-27 20:09:00,
2013-08-27 15:14:00,95.7,68.2,-100.00,WSW,238,1.0,23.0,41,0.00,,,0.00,meteohub,2013-08-27 20:14:00,
2013-08-27 15:19:00,96.3,68.0,-100.00,SSW,210,11.0,21.0,40,0.00,,,0.00,meteohub,2013-08-27 20:19:00,
2013-08-27 15:24:00,95.7,68.2,-100.00,SW,219,0.0,15.0,41,0.00,,,0.00,meteohub,2013-08-27 20:24:00,
2013-08-27 15:29:00,96.3,68.0,-100.00,SW,221,1.0,16.0,40,0.00,,,0.00,meteohub,2013-08-27 20:29:00,
2013-08-27 15:34:00,96.1,69.3,-100.00,SSW,199,4.0,16.0,42,0.00,,,0.00,meteohub,2013-08-27 20:34:00,
2013-08-27 15:39:00,96.4,68.9,-100.00,SW,230,0.0,16.0,41,0.00,,,0.00,meteohub,2013-08-27 20:39:00,
2013-08-27 15:44:00,96.6,68.4,-100.00,SSW,204,4.0,16.0,40,0.00,,,0.00,meteohub,2013-08-27 20:44:00,
2013-08-27 15:49:00,96.3,68.0,-100.00,SSW,210,1.0,16.0,40,0.00,,,0.00,meteohub,2013-08-27 20:49:00,
2013-08-27 15:54:00,96.4,68.2,-100.00,SW,218,10.0,15.0,40,0.00,,,0.00,meteohub,2013-08-27 20:54:00,
2013-08-27 15:59:00,96.3,68.0,-100.00,SSW,205,0.0,17.0,40,0.00,,,0.00,meteohub,2013-08-27 20:59:00,
2013-08-27 16:04:00,96.4,68.2,-100.00,SW,233,5.0,17.0,40,0.00,,,0.00,meteohub,2013-08-27 21:04:00,
2013-08-27 16:09:00,96.3,68.0,-100.00,SSW,213,6.0,14.0,40,0.00,,,0.00,meteohub,2013-08-27 21:09:00,
2013-08-27 16:14:00,95.5,67.3,-100.00,SW,217,2.0,17.0,40,0.00,,,0.00,meteohub,2013-08-27 21:14:00,
2013-08-27 16:19:00,95.4,68.0,-100.00,SSW,206,6.0,20.0,41,0.00,,,0.00,meteohub,2013-08-27 21:19:00,
2013-08-27 16:24:00,95.7,67.5,-100.00,SW,215,0.0,20.0,40,0.00,,,0.00,meteohub,2013-08-27 21:24:00,
2013-08-27 16:29:00,95.7,66.7,-100.00,SW,233,5.0,20.0,39,0.00,,,0.00,meteohub,2013-08-27 21:29:00,
2013-08-27 16:34:00,95.7,66.7,-100.00,SW,232,10.0,19.0,39,0.00,,,0.00,meteohub,2013-08-27 21:34:00,
2013-08-27 16:39:00,95.4,66.6,-100.00,SSW,200,7.0,19.0,39,0.00,,,0.00,meteohub,2013-08-27 21:39:00,
2013-08-27 16:44:00,95.2,66.4,-100.00,SW,225,8.0,19.0,39,0.00,,,0.00,meteohub,2013-08-27 21:44:00,
2013-08-27 16:49:00,95.2,66.4,-100.00,SSW,210,3.0,24.0,39,0.00,,,0.00,meteohub,2013-08-27 21:49:00,
2013-08-27 16:54:00,95.0,66.9,-100.00,SSW,202,4.0,24.0,40,0.00,,,0.00,meteohub,2013-08-27 21:54:00,
2013-08-27 16:59:00,94.8,66.0,-100.00,SW,225,10.0,24.0,39,0.00,,,0.00,meteohub,2013-08-27 21:59:00,
2013-08-27 17:04:00,94.6,66.6,-100.00,SW,221,10.0,17.0,40,0.00,,,0.00,meteohub,2013-08-27 22:04:00,
2013-08-27 17:09:00,94.6,66.6,-100.00,WSW,244,6.0,19.0,40,0.00,,,0.00,meteohub,2013-08-27 22:09:00,
2013-08-27 17:14:00,94.6,65.8,-100.00,SW,234,9.0,19.0,39,0.00,,,0.00,meteohub,2013-08-27 22:14:00,
2013-08-27 17:19:00,94.6,66.6,-100.00,SSW,212,1.0,19.0,40,0.00,,,0.00,meteohub,2013-08-27 22:19:00,
2013-08-27 17:24:00,94.6,66.6,-100.00,South,185,3.0,15.0,40,0.00,,,0.00,meteohub,2013-08-27 22:24:00,
2013-08-27 17:29:00,94.5,67.1,-100.00,SW,233,6.0,15.0,41,0.00,,,0.00,meteohub,2013-08-27 22:29:00,
2013-08-27 17:34:00,94.3,66.9,-100.00,WSW,241,11.0,13.0,41,0.00,,,0.00,meteohub,2013-08-27 22:34:00,
2013-08-27 17:39:00,94.1,66.7,-100.00,SSW,211,3.0,15.0,41,0.00,,,0.00,meteohub,2013-08-27 22:39:00,
2013-08-27 17:44:00,93.9,66.6,-100.00,SSW,203,7.0,15.0,41,0.00,,,0.00,meteohub,2013-08-27 22:44:00,
2013-08-27 17:49:00,93.9,66.6,-100.00,SW,230,0.0,15.0,41,0.00,,,0.00,meteohub,2013-08-27 22:49:00,
2013-08-27 17:54:00,93.7,67.1,-100.00,SSW,210,2.0,15.0,42,0.00,,,0.00,meteohub,2013-08-27 22:54:00,
2013-08-27 17:59:00,93.6,67.1,-100.00,SW,233,0.0,13.0,42,0.00,,,0.00,meteohub,2013-08-27 22:59:00,
2013-08-27 18:04:00,93.6,66.4,-100.00,SSW,208,4.0,13.0,41,0.00,,,0.00,meteohub,2013-08-27 23:04:00,
2013-08-27 18:09:00,93.0,65.8,-100.00,SW,223,3.0,19.0,41,0.00,,,0.00,meteohub,2013-08-27 23:09:00,
2013-08-27 18:15:00,92.8,65.7,-100.00,SW,227,4.0,19.0,41,0.00,,,0.00,meteohub,2013-08-27 23:15:00,
2013-08-27 18:20:00,92.7,65.5,-100.00,SW,214,3.0,19.0,41,0.00,,,0.00,meteohub,2013-08-27 23:20:00,
2013-08-27 18:25:00,92.5,66.0,-100.00,SW,214,1.0,14.0,42,0.00,,,0.00,meteohub,2013-08-27 23:25:00,
2013-08-27 18:30:00,92.3,66.6,-100.00,SW,226,0.0,13.0,43,0.00,,,0.00,meteohub,2013-08-27 23:30:00,
2013-08-27 18:35:00,91.9,66.2,-100.00,SW,229,2.0,10.0,43,0.00,,,0.00,meteohub,2013-08-27 23:35:00,
2013-08-27 18:40:00,91.8,66.0,-100.00,SW,214,5.0,9.0,43,0.00,,,0.00,meteohub,2013-08-27 23:40:00,
2013-08-27 18:45:00,91.6,65.8,-100.00,SSW,207,5.0,7.0,43,0.00,,,0.00,meteohub,2013-08-27 23:45:00,
2013-08-27 18:50:00,91.0,66.0,-100.00,SW,219,0.0,9.0,44,0.00,,,0.00,meteohub,2013-08-27 23:50:00,
2013-08-27 18:55:00,90.9,65.8,-100.00,SSW,205,6.0,10.0,44,0.00,,,0.00,meteohub,2013-08-27 23:55:00,
2013-08-27 19:00:00,90.5,65.7,-100.00,SW,227,3.0,11.0,44,0.00,,,0.00,meteohub,2013-08-28 00:00:00,
2013-08-27 19:05:00,90.3,65.5,-100.00,SSW,207,0.0,11.0,44,0.00,,,0.00,meteohub,2013-08-28 00:05:00,
2013-08-27 19:10:00,90.0,65.8,-100.00,SW,233,1.0,7.0,45,0.00,,,0.00,meteohub,2013-08-28 00:10:00,
2013-08-27 19:15:00,89.6,65.5,-100.00,SW,223,0.0,7.0,45,0.00,,,0.00,meteohub,2013-08-28 00:15:00,
2013-08-27 19:20:00,89.2,65.1,-100.00,SSW,202,0.0,7.0,45,0.00,,,0.00,meteohub,2013-08-28 00:20:00,
2013-08-27 19:25:00,88.7,65.3,-100.00,SSW,204,0.0,7.0,46,0.00,,,0.00,meteohub,2013-08-28 00:25:00,
2013-08-27 19:30:00,88.2,64.8,-100.00,SSW,205,0.0,6.0,46,0.00,,,0.00,meteohub,2013-08-28 00:30:00,
2013-08-27 19:35:00,87.6,64.2,-100.00,SSW,203,0.0,6.0,46,0.00,,,0.00,meteohub,2013-08-28 00:35:00,
2013-08-27 19:40:00,87.3,64.0,-100.00,SSW,203,0.0,6.0,46,0.00,,,0.00,meteohub,2013-08-28 00:40:00,
2013-08-27 19:45:00,86.7,64.0,-100.00,SSW,205,0.0,6.0,47,0.00,,,0.00,meteohub,2013-08-28 00:45:00,
2013-08-27 19:50:00,86.4,63.7,-100.00,SSW,202,0.0,6.0,47,0.00,,,0.00,meteohub,2013-08-28 00:50:00,
2013-08-27 19:55:00,86.0,63.5,-100.00,SSW,201,0.0,4.0,47,0.00,,,0.00,meteohub,2013-08-28 00:55:00,
2013-08-27 20:00:00,85.6,63.7,-100.00,SSW,205,0.0,5.0,48,0.00,,,0.00,meteohub,2013-08-28 01:00:00,
2013-08-27 20:05:00,85.3,63.3,-100.00,SSW,204,0.0,5.0,48,0.00,,,0.00,meteohub,2013-08-28 01:05:00,
2013-08-27 20:10:00,84.9,63.7,-100.00,SSW,203,0.0,5.0,49,0.00,,,0.00,meteohub,2013-08-28 01:10:00,
2013-08-27 20:15:00,84.7,63.5,-100.00,SSW,203,0.0,5.0,49,0.00,,,0.00,meteohub,2013-08-28 01:15:00,
2013-08-27 20:20:00,84.4,63.7,-100.00,SSW,202,1.0,2.0,50,0.00,,,0.00,meteohub,2013-08-28 01:20:00,
2013-08-27 20:25:00,84.0,63.9,-100.00,SSW,213,0.0,2.0,51,0.00,,,0.00,meteohub,2013-08-28 01:25:00,
2013-08-27 20:30:00,83.8,63.9,-100.00,SSW,202,0.0,10.0,51,0.00,,,0.00,meteohub,2013-08-28 01:30:00,
2013-08-27 20:35:00,83.7,63.7,-100.00,SSW,202,0.0,10.0,51,0.00,,,0.00,meteohub,2013-08-28 01:35:00,
2013-08-27 20:40:00,83.5,64.0,-100.00,SSW,201,1.0,1.0,52,0.00,,,0.00,meteohub,2013-08-28 01:40:00,
2013-08-27 20:45:00,83.1,63.7,-100.00,SSW,199,0.0,7.0,52,0.00,,,0.00,meteohub,2013-08-28 01:45:00,
2013-08-27 20:53:00,83.1,63.7,-100.00,SSW,199,0.0,7.0,52,0.00,,,0.00,meteohub,2013-08-28 01:53:00,
2013-08-27 20:58:00,82.8,63.9,-100.00,SSW,199,0.0,2.0,53,0.00,,,0.00,meteohub,2013-08-28 01:58:00,
2013-08-27 21:03:00,82.2,63.9,-100.00,SSW,199,0.0,1.0,54,0.00,,,0.00,meteohub,2013-08-28 02:03:00,
2013-08-27 21:08:00,81.9,64.0,-100.00,SSW,199,0.0,1.0,55,0.00,,,0.00,meteohub,2013-08-28 02:08:00,
2013-08-27 21:13:00,81.7,63.9,-100.00,SSW,199,0.0,1.0,55,0.00,,,0.00,meteohub,2013-08-28 02:13:00,
2013-08-27 21:19:00,81.5,64.2,-100.00,SSW,199,0.0,1.0,56,0.00,,,0.00,meteohub,2013-08-28 02:19:00,
2013-08-27 21:24:00,81.1,64.0,-100.00,SSW,199,0.0,1.0,56,0.00,,,0.00,meteohub,2013-08-28 02:24:00,
2013-08-27 21:30:00,81.1,64.0,-100.00,SSW,196,0.0,1.0,56,0.00,,,0.00,meteohub,2013-08-28 02:30:00,
2013-08-27 21:36:00,81.0,64.2,-100.00,SSW,196,0.0,1.0,57,0.00,,,0.00,meteohub,2013-08-28 02:36:00,
2013-08-27 21:41:00,80.6,64.0,-100.00,SSW,196,0.0,1.0,57,0.00,,,0.00,meteohub,2013-08-28 02:41:00,
2013-08-27 21:46:00,80.4,64.2,-100.00,SSW,194,0.0,1.0,58,0.00,,,0.00,meteohub,2013-08-28 02:46:00,
2013-08-27 21:51:00,80.4,64.2,-100.00,SSW,194,0.0,1.0,58,0.00,,,0.00,meteohub,2013-08-28 02:51:00,
2013-08-27 21:57:00,80.2,64.6,-100.00,SSW,194,0.0,1.0,59,0.00,,,0.00,meteohub,2013-08-28 02:57:00,
2013-08-27 22:02:00,79.5,63.9,-100.00,SSW,194,0.0,1.0,59,0.00,,,0.00,meteohub,2013-08-28 03:02:00,
2013-08-27 22:09:00,79.5,63.9,-100.00,SSW,194,0.0,1.0,59,0.00,,,0.00,meteohub,2013-08-28 03:09:00,
2013-08-27 22:16:00,79.3,64.2,-100.00,SSW,194,0.0,1.0,60,0.00,,,0.00,meteohub,2013-08-28 03:16:00,
2013-08-27 22:22:00,79.0,64.4,-100.00,SSW,194,0.0,1.0,61,0.00,,,0.00,meteohub,2013-08-28 03:22:00,
2013-08-27 22:29:00,78.8,64.2,-100.00,SSW,194,0.0,1.0,61,0.00,,,0.00,meteohub,2013-08-28 03:29:00,
2013-08-27 22:35:00,78.6,64.0,-100.00,SSW,194,0.0,1.0,61,0.00,,,0.00,meteohub,2013-08-28 03:35:00,
2013-08-27 22:40:00,78.8,64.2,-100.00,SSW,195,0.0,1.0,61,0.00,,,0.00,meteohub,2013-08-28 03:40:00,
2013-08-27 22:45:00,79.0,64.4,-100.00,SSW,195,0.0,1.0,61,0.00,,,0.00,meteohub,2013-08-28 03:45:00,
2013-08-27 22:50:00,79.0,64.4,-100.00,SSW,195,0.0,1.0,61,0.00,,,0.00,meteohub,2013-08-28 03:50:00,
2013-08-27 22:55:00,79.2,64.0,-100.00,SSW,196,0.0,1.0,60,0.00,,,0.00,meteohub,2013-08-28 03:55:00,
2013-08-27 23:02:00,79.2,64.0,-100.00,SSW,196,0.0,1.0,60,0.00,,,0.00,meteohub,2013-08-28 04:02:00,
2013-08-27 23:07:00,79.3,64.2,-100.00,SSW,205,0.0,1.0,60,0.00,,,0.00,meteohub,2013-08-28 04:07:00,
2013-08-27 23:08:00,79.3,64.2,-100.00,SSW,205,0.0,1.0,60,0.00,,,0.00,meteohub,2013-08-28 04:08:00,
2013-08-27 23:09:00,79.3,64.2,-100.00,SSW,205,0.0,1.0,60,0.00,,,0.00,meteohub,2013-08-28 04:09:00,
2013-08-27 23:18:00,79.5,64.4,-100.00,SW,215,0.0,6.0,60,0.00,,,0.00,meteohub,2013-08-28 04:18:00,
2013-08-27 23:19:00,79.5,64.4,-100.00,SW,214,0.0,6.0,60,0.00,,,0.00,meteohub,2013-08-28 04:19:00,
2013-08-27 23:24:00,79.5,64.4,-100.00,SSW,211,0.0,6.0,60,0.00,,,0.00,meteohub,2013-08-28 04:24:00,
2013-08-27 23:29:00,79.5,64.4,-100.00,SW,223,0.0,6.0,60,0.00,,,0.00,meteohub,2013-08-28 04:29:00,
2013-08-27 23:34:00,79.3,64.2,-100.00,SSW,205,5.0,5.0,60,0.00,,,0.00,meteohub,2013-08-28 04:34:00,
2013-08-27 23:39:00,79.5,64.4,-100.00,SSW,203,0.0,6.0,60,0.00,,,0.00,meteohub,2013-08-28 04:39:00,
2013-08-27 23:41:00,79.5,64.4,-100.00,SSW,204,0.0,7.0,60,0.00,,,0.00,meteohub,2013-08-28 04:41:00,
2013-08-27 23:42:00,79.5,64.4,-100.00,SSW,203,0.0,7.0,60,0.00,,,0.00,meteohub,2013-08-28 04:42:00,
2013-08-27 23:47:00,79.3,64.2,-100.00,SW,217,5.0,7.0,60,0.00,,,0.00,meteohub,2013-08-28 04:47:00,
2013-08-27 23:52:00,79.3,64.8,-100.00,SSW,209,0.0,7.0,61,0.00,,,0.00,meteohub,2013-08-28 04:52:00,
2013-08-27 23:57:00,79.3,64.8,-100.00,SSW,194,0.0,7.0,61,0.00,,,0.00,meteohub,2013-08-28 04:57:00,